{"data":{"norad_id":63066,"epoch":"2026-05-25T04:43:57.617760Z","epoch_age_seconds":62015,"freshness":"FRESH","line1":"1 63066U 25035Q   26145.19719465  .00026843  00000+0  98103-3 0  9992","line2":"2 63066  43.0041  74.7332 0001996 267.7821  92.2802 15.27592900 71437","mean_motion":15.275929,"eccentricity":0.0001996,"inclination_deg":43.0041,"raan_deg":74.7332,"arg_perigee_deg":267.7821,"mean_anomaly_deg":92.2802,"bstar":0.00098103,"rev_number":7143,"period_min":94.265952663174,"perigee_km":481.6409840359,"apogee_km":484.37995410556,"semimajor_km":6861.1474690707,"source":"CELESTRAK","updated_at":"2026-05-25T13:38:19.874230Z"}}